<?xml version="1.0" encoding="UTF-8" standalone="no" ?><gpx xmlns="http://www.topografix.com/GPX/1/1" xmlns:gpxx="http://www.garmin.com/xmlschemas/GpxExtensions/v3" xmlns:wptx1="http://www.garmin.com/xmlschemas/WaypointExtension/v1" xmlns:gpxtpx="http://www.garmin.com/xmlschemas/TrackPointExtension/v1" creator="GuideVTT.com" version="1.1" xmlns:xsi="http://www.w3.org/2001/XMLSchema-instance" xsi:schemaLocation="http://www.topografix.com/GPX/1/1 http://www.topografix.com/GPX/1/1/gpx.xsd http://www.garmin.com/xmlschemas/GpxExtensions/v3 http://www8.garmin.com/xmlschemas/GpxExtensionsv3.xsd http://www.garmin.com/xmlschemas/WaypointExtension/v1 http://www8.garmin.com/xmlschemas/WaypointExtensionv1.xsd http://www.garmin.com/xmlschemas/TrackPointExtension/v1 http://www.garmin.com/xmlschemas/TrackPointExtensionv1.xsd">
<metadata><link href="http://www.garmin.com"><text>Garmin International</text></link><time>2013-06-22T15:13:50Z</time></metadata>
<trk><name>parcours2.gpx</name><extensions><gpxx:TrackExtension><gpxx:DisplayColor>Cyan</gpxx:DisplayColor></gpxx:TrackExtension></extensions><trkseg>
<trkpt lat="46.25772298" lon="7.34670003"><ele>1048</ele><time>1990-01-01T00:00:00Z</time></trkpt>
<trkpt lat="46.25772298" lon="7.34661357"><ele>1048</ele><time>1990-01-01T00:00:00Z</time></trkpt>
<trkpt lat="46.25769857" lon="7.34670003"><ele>1053</ele><time>1990-01-01T00:00:00Z</time></trkpt>
<trkpt lat="46.25763347" lon="7.34674275"><ele>1056</ele><time>1990-01-01T00:00:00Z</time></trkpt>
<trkpt lat="46.25760905" lon="7.34674275"><ele>1060</ele><time>1990-01-01T00:00:00Z</time></trkpt>
<trkpt lat="46.25760905" lon="7.34670003"><ele>1060</ele><time>1990-01-01T00:00:00Z</time></trkpt>
<trkpt lat="46.25759277" lon="7.34670003"><ele>1056</ele><time>1990-01-01T00:00:00Z</time></trkpt>
<trkpt lat="46.25739747" lon="7.34599100"><ele>1055</ele><time>1990-01-01T00:00:00Z</time></trkpt>
<trkpt lat="46.25717773" lon="7.34534810"><ele>1056</ele><time>1990-01-01T00:00:00Z</time></trkpt>
<trkpt lat="46.25703125" lon="7.34476827"><ele>1056</ele><time>1990-01-01T00:00:00Z</time></trkpt>
<trkpt lat="46.25690918" lon="7.34406027"><ele>1058</ele><time>1990-01-01T00:00:00Z</time></trkpt>
<trkpt lat="46.25681967" lon="7.34326680"><ele>1059</ele><time>1990-01-01T00:00:00Z</time></trkpt>
<trkpt lat="46.25679525" lon="7.34260152"><ele>1057</ele><time>1990-01-01T00:00:00Z</time></trkpt>
<trkpt lat="46.25700683" lon="7.34182842"><ele>1057</ele><time>1990-01-01T00:00:00Z</time></trkpt>
<trkpt lat="46.25746257" lon="7.34139913"><ele>1057</ele><time>1990-01-01T00:00:00Z</time></trkpt>
<trkpt lat="46.25799968" lon="7.34133505"><ele>1059</ele><time>1990-01-01T00:00:00Z</time></trkpt>
<trkpt lat="46.25877278" lon="7.34170023"><ele>1066</ele><time>1990-01-01T00:00:00Z</time></trkpt>
<trkpt lat="46.25909830" lon="7.34178568"><ele>1069</ele><time>1990-01-01T00:00:00Z</time></trkpt>
<trkpt lat="46.25965170" lon="7.34223633"><ele>1075</ele><time>1990-01-01T00:00:00Z</time></trkpt>
<trkpt lat="46.25991212" lon="7.34251505"><ele>1081</ele><time>1990-01-01T00:00:00Z</time></trkpt>
<trkpt lat="46.25996907" lon="7.34255778"><ele>1082</ele><time>1990-01-01T00:00:00Z</time></trkpt>
<trkpt lat="46.26003418" lon="7.34247233"><ele>1081</ele><time>1990-01-01T00:00:00Z</time></trkpt>
<trkpt lat="46.26012370" lon="7.34189352"><ele>1083</ele><time>1990-01-01T00:00:00Z</time></trkpt>
<trkpt lat="46.26027018" lon="7.33964030"><ele>1092</ele><time>1990-01-01T00:00:00Z</time></trkpt>
<trkpt lat="46.26018880" lon="7.33865255"><ele>1096</ele><time>1990-01-01T00:00:00Z</time></trkpt>
<trkpt lat="46.25995280" lon="7.33800965"><ele>1101</ele><time>1990-01-01T00:00:00Z</time></trkpt>
<trkpt lat="46.25991212" lon="7.33734437"><ele>1104</ele><time>1990-01-01T00:00:00Z</time></trkpt>
<trkpt lat="46.25992838" lon="7.33670043"><ele>1108</ele><time>1990-01-01T00:00:00Z</time></trkpt>
<trkpt lat="46.25991212" lon="7.33601380"><ele>1110</ele><time>1990-01-01T00:00:00Z</time></trkpt>
<trkpt lat="46.25944010" lon="7.33500468"><ele>1110</ele><time>1990-01-01T00:00:00Z</time></trkpt>
<trkpt lat="46.25967610" lon="7.33397522"><ele>1114</ele><time>1990-01-01T00:00:00Z</time></trkpt>
<trkpt lat="46.25979818" lon="7.33307393"><ele>1115</ele><time>1990-01-01T00:00:00Z</time></trkpt>
<trkpt lat="46.26001790" lon="7.33223673"><ele>1116</ele><time>1990-01-01T00:00:00Z</time></trkpt>
<trkpt lat="46.26025390" lon="7.33094992"><ele>1119</ele><time>1990-01-01T00:00:00Z</time></trkpt>
<trkpt lat="46.26013997" lon="7.33013407"><ele>1121</ele><time>1990-01-01T00:00:00Z</time></trkpt>
<trkpt lat="46.25969238" lon="7.32940470"><ele>1123</ele><time>1990-01-01T00:00:00Z</time></trkpt>
<trkpt lat="46.25950522" lon="7.32873942"><ele>1131</ele><time>1990-01-01T00:00:00Z</time></trkpt>
<trkpt lat="46.25962728" lon="7.32876078"><ele>1132</ele><time>1990-01-01T00:00:00Z</time></trkpt>
<trkpt lat="46.26013997" lon="7.32972615"><ele>1132</ele><time>1990-01-01T00:00:00Z</time></trkpt>
<trkpt lat="46.26104330" lon="7.33069255"><ele>1132</ele><time>1990-01-01T00:00:00Z</time></trkpt>
<trkpt lat="46.26147462" lon="7.33152873"><ele>1132</ele><time>1990-01-01T00:00:00Z</time></trkpt>
<trkpt lat="46.26160482" lon="7.33275248"><ele>1141</ele><time>1990-01-01T00:00:00Z</time></trkpt>
<trkpt lat="46.26151530" lon="7.33378193"><ele>1162</ele><time>1990-01-01T00:00:00Z</time></trkpt>
<trkpt lat="46.26160482" lon="7.33524068"><ele>1175</ele><time>1990-01-01T00:00:00Z</time></trkpt>
<trkpt lat="46.26184082" lon="7.33530578"><ele>1176</ele><time>1990-01-01T00:00:00Z</time></trkpt>
<trkpt lat="46.26207682" lon="7.33217265"><ele>1186</ele><time>1990-01-01T00:00:00Z</time></trkpt>
<trkpt lat="46.26206055" lon="7.33135783"><ele>1190</ele><time>1990-01-01T00:00:00Z</time></trkpt>
<trkpt lat="46.26192220" lon="7.33022053"><ele>1197</ele><time>1990-01-01T00:00:00Z</time></trkpt>
<trkpt lat="46.26151530" lon="7.32865397"><ele>1207</ele><time>1990-01-01T00:00:00Z</time></trkpt>
<trkpt lat="46.26106772" lon="7.32794597"><ele>1217</ele><time>1990-01-01T00:00:00Z</time></trkpt>
<trkpt lat="46.25982260" lon="7.32562765"><ele>1220</ele><time>1990-01-01T00:00:00Z</time></trkpt>
<trkpt lat="46.25988770" lon="7.32494100"><ele>1225</ele><time>1990-01-01T00:00:00Z</time></trkpt>
<trkpt lat="46.25995280" lon="7.32500610"><ele>1225</ele><time>1990-01-01T00:00:00Z</time></trkpt>
<trkpt lat="46.25999348" lon="7.32515563"><ele>1230</ele><time>1990-01-01T00:00:00Z</time></trkpt>
<trkpt lat="46.26009928" lon="7.32592875"><ele>1237</ele><time>1990-01-01T00:00:00Z</time></trkpt>
<trkpt lat="46.26037598" lon="7.32659403"><ele>1238</ele><time>1990-01-01T00:00:00Z</time></trkpt>
<trkpt lat="46.26117350" lon="7.32755942"><ele>1242</ele><time>1990-01-01T00:00:00Z</time></trkpt>
<trkpt lat="46.26175130" lon="7.32820333"><ele>1248</ele><time>1990-01-01T00:00:00Z</time></trkpt>
<trkpt lat="46.26258952" lon="7.32929688"><ele>1255</ele><time>1990-01-01T00:00:00Z</time></trkpt>
<trkpt lat="46.26315105" lon="7.33034872"><ele>1262</ele><time>1990-01-01T00:00:00Z</time></trkpt>
<trkpt lat="46.26350912" lon="7.33094992"><ele>1270</ele><time>1990-01-01T00:00:00Z</time></trkpt>
<trkpt lat="46.26383463" lon="7.33195802"><ele>1275</ele><time>1990-01-01T00:00:00Z</time></trkpt>
<trkpt lat="46.26420085" lon="7.33292338"><ele>1281</ele><time>1990-01-01T00:00:00Z</time></trkpt>
<trkpt lat="46.26463217" lon="7.33526307"><ele>1300</ele><time>1990-01-01T00:00:00Z</time></trkpt>
<trkpt lat="46.26507975" lon="7.33603515"><ele>1311</ele><time>1990-01-01T00:00:00Z</time></trkpt>
<trkpt lat="46.26546223" lon="7.33695780"><ele>1320</ele><time>1990-01-01T00:00:00Z</time></trkpt>
<trkpt lat="46.26561687" lon="7.33811645"><ele>1330</ele><time>1990-01-01T00:00:00Z</time></trkpt>
<trkpt lat="46.26557617" lon="7.33895365"><ele>1338</ele><time>1990-01-01T00:00:00Z</time></trkpt>
<trkpt lat="46.26559245" lon="7.33974712"><ele>1341</ele><time>1990-01-01T00:00:00Z</time></trkpt>
<trkpt lat="46.26607260" lon="7.34034830"><ele>1344</ele><time>1990-01-01T00:00:00Z</time></trkpt>
<trkpt lat="46.26641438" lon="7.34116313"><ele>1344</ele><time>1990-01-01T00:00:00Z</time></trkpt>
<trkpt lat="46.26658528" lon="7.34170023"><ele>1344</ele><time>1990-01-01T00:00:00Z</time></trkpt>
<trkpt lat="46.26656087" lon="7.34170023"><ele>1346</ele><time>1990-01-01T00:00:00Z</time></trkpt>
<trkpt lat="46.26653647" lon="7.34161377"><ele>1348</ele><time>1990-01-01T00:00:00Z</time></trkpt>
<trkpt lat="46.26649577" lon="7.34159240"><ele>1348</ele><time>1990-01-01T00:00:00Z</time></trkpt>
<trkpt lat="46.26735027" lon="7.34343770"><ele>1350</ele><time>1990-01-01T00:00:00Z</time></trkpt>
<trkpt lat="46.26796062" lon="7.34455363"><ele>1352</ele><time>1990-01-01T00:00:00Z</time></trkpt>
<trkpt lat="46.26889648" lon="7.34614157"><ele>1352</ele><time>1990-01-01T00:00:00Z</time></trkpt>
<trkpt lat="46.26956380" lon="7.34712830"><ele>1355</ele><time>1990-01-01T00:00:00Z</time></trkpt>
<trkpt lat="46.26988118" lon="7.34772948"><ele>1355</ele><time>1990-01-01T00:00:00Z</time></trkpt>
<trkpt lat="46.27031250" lon="7.34843750"><ele>1355</ele><time>1990-01-01T00:00:00Z</time></trkpt>
<trkpt lat="46.27050782" lon="7.34820150"><ele>1358</ele><time>1990-01-01T00:00:00Z</time></trkpt>
<trkpt lat="46.27112630" lon="7.34839478"><ele>1368</ele><time>1990-01-01T00:00:00Z</time></trkpt>
<trkpt lat="46.27156575" lon="7.34895223"><ele>1368</ele><time>1990-01-01T00:00:00Z</time></trkpt>
<trkpt lat="46.27290853" lon="7.35096943"><ele>1375</ele><time>1990-01-01T00:00:00Z</time></trkpt>
<trkpt lat="46.27316895" lon="7.35126953"><ele>1376</ele><time>1990-01-01T00:00:00Z</time></trkpt>
<trkpt lat="46.27345378" lon="7.35167745"><ele>1376</ele><time>1990-01-01T00:00:00Z</time></trkpt>
<trkpt lat="46.27345378" lon="7.35163473"><ele>1379</ele><time>1990-01-01T00:00:00Z</time></trkpt>
<trkpt lat="46.27342122" lon="7.35174255"><ele>1374</ele><time>1990-01-01T00:00:00Z</time></trkpt>
<trkpt lat="46.27348633" lon="7.35212808"><ele>1370</ele><time>1990-01-01T00:00:00Z</time></trkpt>
<trkpt lat="46.27355957" lon="7.35230000"><ele>1368</ele><time>1990-01-01T00:00:00Z</time></trkpt>
<trkpt lat="46.27364095" lon="7.35242920"><ele>1369</ele><time>1990-01-01T00:00:00Z</time></trkpt>
<trkpt lat="46.27374675" lon="7.35279338"><ele>1369</ele><time>1990-01-01T00:00:00Z</time></trkpt>
<trkpt lat="46.27379557" lon="7.35330810"><ele>1367</ele><time>1990-01-01T00:00:00Z</time></trkpt>
<trkpt lat="46.27390137" lon="7.35360922"><ele>1363</ele><time>1990-01-01T00:00:00Z</time></trkpt>
<trkpt lat="46.27411295" lon="7.35405985"><ele>1359</ele><time>1990-01-01T00:00:00Z</time></trkpt>
<trkpt lat="46.27417807" lon="7.35444540"><ele>1356</ele><time>1990-01-01T00:00:00Z</time></trkpt>
<trkpt lat="46.27421875" lon="7.35547587"><ele>1348</ele><time>1990-01-01T00:00:00Z</time></trkpt>
<trkpt lat="46.27417807" lon="7.35594788"><ele>1345</ele><time>1990-01-01T00:00:00Z</time></trkpt>
<trkpt lat="46.27362468" lon="7.35693462"><ele>1335</ele><time>1990-01-01T00:00:00Z</time></trkpt>
<trkpt lat="46.27351073" lon="7.35719198"><ele>1333</ele><time>1990-01-01T00:00:00Z</time></trkpt>
<trkpt lat="46.27347005" lon="7.35740662"><ele>1331</ele><time>1990-01-01T00:00:00Z</time></trkpt>
<trkpt lat="46.27357585" lon="7.35850118"><ele>1320</ele><time>1990-01-01T00:00:00Z</time></trkpt>
<trkpt lat="46.27377115" lon="7.35908102"><ele>1317</ele><time>1990-01-01T00:00:00Z</time></trkpt>
<trkpt lat="46.27411295" lon="7.35968120"><ele>1313</ele><time>1990-01-01T00:00:00Z</time></trkpt>
<trkpt lat="46.27417807" lon="7.36004638"><ele>1312</ele><time>1990-01-01T00:00:00Z</time></trkpt>
<trkpt lat="46.27411295" lon="7.36002503"><ele>1312</ele><time>1990-01-01T00:00:00Z</time></trkpt>
<trkpt lat="46.27368163" lon="7.36015320"><ele>1308</ele><time>1990-01-01T00:00:00Z</time></trkpt>
<trkpt lat="46.27353515" lon="7.36030375"><ele>1306</ele><time>1990-01-01T00:00:00Z</time></trkpt>
<trkpt lat="46.27297363" lon="7.36028238"><ele>1299</ele><time>1990-01-01T00:00:00Z</time></trkpt>
<trkpt lat="46.27272135" lon="7.35998230"><ele>1297</ele><time>1990-01-01T00:00:00Z</time></trkpt>
<trkpt lat="46.27256673" lon="7.35972392"><ele>1296</ele><time>1990-01-01T00:00:00Z</time></trkpt>
<trkpt lat="46.27179362" lon="7.35775045"><ele>1291</ele><time>1990-01-01T00:00:00Z</time></trkpt>
<trkpt lat="46.27102052" lon="7.35631307"><ele>1282</ele><time>1990-01-01T00:00:00Z</time></trkpt>
<trkpt lat="46.27044272" lon="7.35573323"><ele>1276</ele><time>1990-01-01T00:00:00Z</time></trkpt>
<trkpt lat="46.26947428" lon="7.35435995"><ele>1267</ele><time>1990-01-01T00:00:00Z</time></trkpt>
<trkpt lat="46.26935222" lon="7.35412395"><ele>1265</ele><time>1990-01-01T00:00:00Z</time></trkpt>
<trkpt lat="46.26913248" lon="7.35414530"><ele>1263</ele><time>1990-01-01T00:00:00Z</time></trkpt>
<trkpt lat="46.26915690" lon="7.35420938"><ele>1261</ele><time>1990-01-01T00:00:00Z</time></trkpt>
<trkpt lat="46.26953938" lon="7.35472513"><ele>1258</ele><time>1990-01-01T00:00:00Z</time></trkpt>
<trkpt lat="46.26993002" lon="7.35599060"><ele>1249</ele><time>1990-01-01T00:00:00Z</time></trkpt>
<trkpt lat="46.26990560" lon="7.35691325"><ele>1246</ele><time>1990-01-01T00:00:00Z</time></trkpt>
<trkpt lat="46.26975912" lon="7.35736390"><ele>1244</ele><time>1990-01-01T00:00:00Z</time></trkpt>
<trkpt lat="46.26961263" lon="7.35710653"><ele>1241</ele><time>1990-01-01T00:00:00Z</time></trkpt>
<trkpt lat="46.26956380" lon="7.35684917"><ele>1239</ele><time>1990-01-01T00:00:00Z</time></trkpt>
<trkpt lat="46.26939290" lon="7.35639852"><ele>1234</ele><time>1990-01-01T00:00:00Z</time></trkpt>
<trkpt lat="46.26851400" lon="7.35538940"><ele>1229</ele><time>1990-01-01T00:00:00Z</time></trkpt>
<trkpt lat="46.26830240" lon="7.35506795"><ele>1227</ele><time>1990-01-01T00:00:00Z</time></trkpt>
<trkpt lat="46.26669108" lon="7.35131327"><ele>1201</ele><time>1990-01-01T00:00:00Z</time></trkpt>
<trkpt lat="46.26552735" lon="7.34897360"><ele>1189</ele><time>1990-01-01T00:00:00Z</time></trkpt>
<trkpt lat="46.26501465" lon="7.34833068"><ele>1181</ele><time>1990-01-01T00:00:00Z</time></trkpt>
<trkpt lat="46.26458333" lon="7.34843750"><ele>1174</ele><time>1990-01-01T00:00:00Z</time></trkpt>
<trkpt lat="46.26455892" lon="7.34908142"><ele>1168</ele><time>1990-01-01T00:00:00Z</time></trkpt>
<trkpt lat="46.26512045" lon="7.35114135"><ele>1147</ele><time>1990-01-01T00:00:00Z</time></trkpt>
<trkpt lat="46.26539713" lon="7.35275065"><ele>1133</ele><time>1990-01-01T00:00:00Z</time></trkpt>
<trkpt lat="46.26516927" lon="7.35438130"><ele>1121</ele><time>1990-01-01T00:00:00Z</time></trkpt>
<trkpt lat="46.26514485" lon="7.35472513"><ele>1118</ele><time>1990-01-01T00:00:00Z</time></trkpt>
<trkpt lat="46.26548665" lon="7.35609843"><ele>1113</ele><time>1990-01-01T00:00:00Z</time></trkpt>
<trkpt lat="46.26552735" lon="7.35637715"><ele>1111</ele><time>1990-01-01T00:00:00Z</time></trkpt>
<trkpt lat="46.26546223" lon="7.35665588"><ele>1108</ele><time>1990-01-01T00:00:00Z</time></trkpt>
<trkpt lat="46.26535645" lon="7.35639852"><ele>1105</ele><time>1990-01-01T00:00:00Z</time></trkpt>
<trkpt lat="46.26520997" lon="7.35586243"><ele>1103</ele><time>1990-01-01T00:00:00Z</time></trkpt>
<trkpt lat="46.26494955" lon="7.35545452"><ele>1100</ele><time>1990-01-01T00:00:00Z</time></trkpt>
<trkpt lat="46.26454265" lon="7.35521850"><ele>1095</ele><time>1990-01-01T00:00:00Z</time></trkpt>
<trkpt lat="46.26350912" lon="7.35504658"><ele>1085</ele><time>1990-01-01T00:00:00Z</time></trkpt>
<trkpt lat="46.26278483" lon="7.35418803"><ele>1076</ele><time>1990-01-01T00:00:00Z</time></trkpt>
<trkpt lat="46.26261393" lon="7.35401612"><ele>1074</ele><time>1990-01-01T00:00:00Z</time></trkpt>
<trkpt lat="46.26215820" lon="7.35378012"><ele>1070</ele><time>1990-01-01T00:00:00Z</time></trkpt>
<trkpt lat="46.26147462" lon="7.35287985"><ele>1065</ele><time>1990-01-01T00:00:00Z</time></trkpt>
<trkpt lat="46.26040038" lon="7.35163473"><ele>1057</ele><time>1990-01-01T00:00:00Z</time></trkpt>
<trkpt lat="46.25937500" lon="7.35000407"><ele>1051</ele><time>1990-01-01T00:00:00Z</time></trkpt>
<trkpt lat="46.25848795" lon="7.34848022"><ele>1045</ele><time>1990-01-01T00:00:00Z</time></trkpt>
<trkpt lat="46.25812988" lon="7.34822287"><ele>1044</ele><time>1990-01-01T00:00:00Z</time></trkpt>
<trkpt lat="46.25759277" lon="7.34702148"><ele>1042</ele><time>1990-01-01T00:00:00Z</time></trkpt>
<trkpt lat="46.25752767" lon="7.34682820"><ele>1043</ele><time>1990-01-01T00:00:00Z</time></trkpt>
<trkpt lat="46.25763347" lon="7.34667765"><ele>1046</ele><time>1990-01-01T00:00:00Z</time></trkpt>
</trkseg></trk></gpx>